Probability
0 1 1 1 2 3 2 2 2 3 3 1 0 0 0 0 0 0 0 0 0 1 2 4 4 4 3 2 1 0 0 0 0 0 0 0 0 1 2 2 1 0 0
1 2 2 2 3 4 4 4 3 3 3 2 1 1 1 1 0 0 0 0 0 0 1 3 4 4 3 2 1 1 0 0 0 0 0 0 0 0 1 1 0 0 0
3 3 4 3 4 5 5 6 5 4 3 3 2 2 2 2 1 0 0 0 0 0 0 2 3 4 3 3 2 2 2 2 1 1 1 0 0 0 0 0 0 0 0
3 3 4 4 4 4 5 6 6 5 4 3 2 2 3 3 2 1 0 0 0 0 1 2 2 3 4 5 5 4 3 3 3 2 1 0 0 0 0 0 0 0 0
3 3 3 3 3 3 4 5 6 4 3 3 2 2 4 6 5 2 1 0 0 1 1 2 1 1 3 5 6 5 4 4 3 2 1 0 0 1 1 1 1 0 0
3 2 2 2 3 3 3 4 5 4 3 3 3 3 4 6 5 3 1 0 0 1 2 2 1 0 1 4 6 6 6 4 3 1 0 0 0 1 1 1 0 0 0
1 1 1 2 3 3 3 4 5 4 3 3 3 2 3 4 3 2 1 0 0 1 1 1 0 0 1 4 6 6 5 4 1 0 0 0 0 1 1 0 0 0 0
0 0 1 2 3 3 3 4 4 4 3 3 3 3 3 3 3 2 1 0 0 0 0 0 0 0 1 3 5 6 4 2 1 0 0 0 0 0 0 0 0 0 0
0 0 0 1 1 2 2 2 3 3 3 3 3 3 3 3 3 3 2 1 0 0 0 0 0 0 0 2 4 4 3 1 0 0 0 0 0 0 0 0 0 0 0
0 0 0 0 0 1 1 2 2 3 3 3 3 3 3 3 3 3 3 1 1 0 0 0 0 0 0 1 2 2 1 0 0 0 0 0 0 0 0 0 0 0 0
0 0 0 0 0 0 1 2 3 3 3 3 2 3 3 3 3 3 3 3 2 1 0 0 0 0 0 0 0 0 0 0 0 0 0 0 0 0 0 0 0 1 1
0 0 0 0 0 0 1 2 3 3 3 1 1 1 2 1 1 2 2 2 2 1 0 0 0 0 0 0 0 0 0 0 0 0 0 0 0 0 0 0 0 1 1
0 0 0 0 0 0 1 2 3 3 2 1 0 0 0 0 0 1 1 1 1 0 0 0 0 0 0 0 0 0 0 0 0 0 0 0 0 0 0 0 0 0 1
0 0 0 0 0 0 1 2 2 2 1 0 0 0 0 0 0 0 0 0 0 0 0 0 0 0 0 0 0 0 0 0 0 0 0 0 0 0 0 0 0 0 0
0 0 0 0 0 0 0 1 1 1 0 0 0 0 0 0 0 0 0 0 0 0 0 0 0 0 0 0 0 0 0 0 0 0 0 0 0 0 0 0 0 0 0
0 0 0 0 0 0 0 0 0 0 0 0 0 0 0 0 0 0 0 0 0 0 0 0 0 0 0 0 0 0 0 0 0 0 0 0 0 0 0 0 0 0 0
0 0 0 0 0 0 0 0 0 0 0 0 0 0 0 0 0 0 0 0 0 0 0 0 0 0 0 0 0 0 0 0 0 0 0 0 0 0 0 0 0 0 0
0 0 0 0 0 0 0 0 0 0 0 0 0 0 0 0 0 0 0 0 0 0 0 0 0 0 0 0 0 0 0 0 0 0 0 0 0 0 0 0 0 0 0
0 0 0 0 0 0 0 0 0 0 0 0 0 0 0 0 0 0 0 0 0 0 0 0 0 0 0 0 0 0 0 0 0 0 0 0 0 0 0 0 0 0 0
0 0 0 0 0 0 0 0 0 0 0 0 0 0 0 0 0 0 0 0 0 0 0 0 0 0 0 0 0 0 0 0 0 0 0 0 0 0 0 0 0 0 0
0 0 0 0 0 0 0 0 0 0 0 0 0 0 0 0 0 0 0 0 0 0 0 0 0 0 0 0 0 0 0 0 0 0 0 0 0 0 0 0 0 0 0
0 0 0 0 0 0 0 0 0 0 0 0 0 0 0 0 0 0 0 0 0 0 0 0 0 0 0 0 0 0 0 0 0 0 0 0 0 0 0 0 0 0 0
0 0 0 0 0 0 0 0 0 0 0 0 0 0 0 0 0 0 0 0 0 0 0 0 0 0 0 0 0 0 0 0 0 0 0 0 0 0 0 0 0 0 0
1 0 0 0 0 0 0 0 0 0 0 0 0 0 0 0 0 0 0 0 0 0 0 0 0 0 0 0 0 0 0 0 0 0 0 0 0 0 0 0 0 0 0
1 0 0 0 0 0 0 0 0 0 0 0 0 0 0 0 0 0 0 0 0 0 0 0 0 0 0 0 0 0 0 0 0 0 0 0 0 0 0 0 0 0 0
1 0 0 0 0 0 0 0 0 0 0 0 0 0 0 0 0 0 0 0 0 0 0 0 0 0 0 0 0 0 0 0 0 0 0 0 0 0 0 0 0 0 0
Wind_Speed
3 4 5 7 8 9 10 10 10 10 11 11 11 11 11 10 10 11 10 10 10 10 10 10 9 9 10 10 10 10 10 11 11 11 11 10 9 9 9 9 8 6 8
2 3 5 7 9 9 10 10 10 11 11 11 11 11 11 10 10 10 10 10 11 11 10 10 10 10 9 10 10 10 11 11 11 12 11 10 10 10 10 10 9 6 9
1 2 3 7 8 9 10 10 10 11 11 11 11 11 10 10 10 10 10 10 11 11 11 10 10 10 10 10 10 10 11 11 11 12 11 6 6 10 10 10 10 10 9
2 3 4 8 8 9 9 10 10 11 11 11 11 11 11 10 10 10 10 11 11 11 11 11 11 11 10 10 10 10 10 11 12 11 6 5 5 9 10 10 10 9 9
3 3 3 8 8 8 9 10 10 10 11 11 11 11 11 11 11 11 11 11 11 11 11 11 11 10 10 10 10 10 11 11 12 9 5 5 4 9 10 9 9 9 9
3 3 3 7 7 8 9 10 10 10 10 11 11 11 12 12 12 11 11 11 11 11 11 11 10 10 9 10 10 10 11 11 9 5 5 5 4 8 10 9 9 9 9
3 3 3 7 7 8 9 10 10 10 10 11 11 11 12 12 12 12 12 12 12 11 12 11 11 10 10 9 10 10 11 11 7 5 5 4 5 9 9 9 9 9 9
3 3 3 6 8 8 9 9 9 10 10 10 11 11 12 12 12 12 12 12 12 12 12 11 11 10 10 10 9 10 10 10 7 6 4 4 8 10 10 9 9 9 9
3 4 4 4 5 6 8 8 9 10 10 10 11 11 11 12 11 12 12 12 12 12 12 12 11 11 11 10 10 10 11 11 6 4 5 4 8 10 10 10 9 9 8
4 4 4 4 4 3 3 7 9 10 10 10 10 11 11 11 11 11 10 11 11 11 11 11 11 11 11 11 11 11 11 9 5 4 3 4 9 9 10 9 8 8 7
3 3 3 3 3 3 2 5 6 8 9 9 8 10 9 5 5 6 9 11 11 11 11 11 11 11 10 10 11 11 8 4 4 3 3 6 8 9 10 9 8 7 7
1 2 2 3 3 4 3 3 3 4 5 5 4 5 4 4 4 6 9 11 11 12 11 12 12 11 8 5 7 8 4 4 4 3 3 8 8 9 9 9 9 9 9
1 1 2 2 3 4 3 3 3 3 3 4 5 5 4 4 4 5 4 5 6 8 6 7 7 5 5 4 4 4 4 4 3 3 4 7 8 8 9 9 9 9 10
2 1 1 2 3 4 4 3 3 3 3 3 4 5 4 3 4 3 3 4 4 3 4 4 3 5 5 5 5 5 5 3 3 3 4 7 7 7 8 9 9 9 9
2 1 1 2 3 3 3 3 3 3 3 3 3 4 4 3 3 3 3 3 4 3 3 4 4 4 5 5 4 5 5 4 4 4 3 8 8 8 8 9 9 9 9
2 1 2 2 2 3 3 2 2 2 2 3 3 3 4 3 3 3 3 3 3 3 3 3 3 3 3 3 4 4 4 4 4 4 4 6 10 9 9 8 8 8 9
2 2 2 2 3 3 3 2 2 2 3 3 3 3 4 3 3 3 3 3 3 3 3 3 4 3 4 4 4 4 4 4 4 4 5 4 5 9 10 9 9 9 8
3 2 2 2 3 3 3 2 2 2 3 2 2 3 3 4 4 3 3 3 3 3 3 3 3 3 4 3 3 3 3 3 4 4 4 5 4 4 7 10 10 9 9
3 3 3 3 3 3 3 3 3 3 3 2 2 3 3 4 4 3 3 2 3 3 3 3 3 2 3 3 2 3 3 3 3 4 5 5 5 5 4 7 10 10 9
3 3 3 3 3 3 3 3 3 3 3 3 3 3 3 3 3 3 3 3 3 3 3 3 3 3 2 2 3 3 3 3 3 3 3 4 4 5 5 5 5 6 9
3 3 3 3 2 3 2 2 2 1 1 2 2 3 3 3 3 3 3 3 3 3 3 3 2 3 3 2 2 3 3 3 3 3 3 3 4 4 4 4 4 3 4
3 3 3 3 3 2 2 2 1 1 1 1 1 2 3 3 3 3 3 2 2 2 3 3 3 2 2 3 2 2 3 4 3 4 3 3 3 3 3 4 4 4 3
4 5 4 4 4 3 3 2 2 2 2 2 2 2 2 2 2 2 2 2 2 2 1 2 2 2 1 1 2 2 2 1 3 3 3 3 3 3 3 3 3 3 3
5 4 3 3 3 3 3 4 4 3 1 1 0 1 2 2 2 2 1 1 1 1 1 1 1 1 2 1 1 1 1 2 1 2 3 2 3 3 3 3 3 3 3
5 4 4 4 3 3 3 4 4 2 1 0 1 1 1 2 1 1 1 1 1 1 1 1 1 1 1 1 0 0 1 1 1 1 2 3 3 2 2 2 2 2 3
4 4 4 4 3 3 3 3 4 4 2 1 1 0 1 1 1 2 1 1 1 0 0 0 1 1 1 1 1 1 1 0 1 1 1 2 3 3 2 2 1 2 2
Wind_Direction
317 318 355 40 52 55 57 61 65 69 70 69 67 66 65 63 63 64 66 70 71 74 84 87 85 82 79 77 76 73 71 73 72 69 66 68 70 71 73 78 77 70 78
292 328 21 46 53 58 61 65 68 68 70 71 68 66 64 62 63 65 66 69 70 72 79 82 81 78 78 76 76 73 72 71 70 69 65 61 65 68 70 73 74 77 79
13 359 37 54 58 59 61 66 68 68 68 69 67 63 61 60 62 64 67 70 71 73 75 77 76 77 76 76 74 71 71 72 73 69 62 48 55 68 70 72 73 75 77
42 23 50 61 61 62 64 68 68 70 69 67 65 61 59 59 59 62 65 69 73 74 74 75 75 76 75 74 73 73 73 74 72 66 53 42 47 66 67 70 70 71 72
48 33 50 65 65 66 66 67 68 69 68 65 62 61 59 60 59 59 63 67 70 72 73 73 74 74 72 72 73 75 75 75 72 62 49 41 41 64 65 69 71 70 68
50 36 52 66 65 68 67 65 65 66 67 66 63 63 63 63 61 59 60 62 64 66 69 71 73 74 71 72 73 76 77 76 69 54 46 39 42 66 67 68 69 69 68
58 38 47 62 66 66 66 66 66 65 66 67 64 63 61 60 60 60 58 61 63 64 67 67 69 70 69 73 74 76 77 76 69 53 45 40 52 65 66 67 69 70 68
75 50 48 57 63 64 64 66 66 65 66 65 64 62 59 59 60 61 62 63 63 65 69 68 68 67 65 66 71 74 77 75 68 57 47 42 60 62 63 63 63 66 65
61 55 38 36 45 56 63 66 65 64 65 65 65 63 59 56 56 58 59 60 64 65 65 65 65 64 63 63 69 71 73 71 58 46 49 40 58 60 61 60 60 62 61
52 44 38 32 33 33 44 64 67 66 64 61 60 59 56 50 48 51 52 56 60 61 63 64 64 61 61 63 67 67 66 61 46 41 32 48 58 58 58 57 57 58 61
48 31 35 30 23 22 52 63 62 61 56 53 50 51 49 35 34 42 50 56 58 59 60 60 61 60 60 59 61 61 58 47 42 35 27 57 60 59 55 51 49 46 64
47 13 26 25 21 24 56 63 54 55 49 45 40 38 36 32 35 45 46 53 54 55 55 57 58 54 53 47 49 52 45 41 39 26 36 55 59 59 55 51 51 53 66
162 50 44 36 36 44 55 63 53 49 46 41 39 39 40 39 34 36 38 39 39 42 41 44 46 41 45 46 47 45 42 41 29 17 24 46 53 56 56 53 53 54 56
134 118 73 58 51 49 56 59 59 53 44 38 34 41 46 44 38 34 40 35 36 33 34 38 43 39 44 44 50 50 44 39 29 16 18 37 45 50 51 53 55 57 57
140 132 113 85 70 62 62 57 60 53 50 42 39 39 48 54 46 41 39 40 38 36 38 37 43 42 39 39 47 50 42 34 27 22 12 30 37 43 45 49 53 55 58
156 147 115 98 88 81 73 68 65 57 54 51 44 40 45 53 53 52 45 40 34 32 37 44 46 47 40 40 42 41 37 27 24 24 22 23 31 37 43 47 50 54 56
155 137 125 121 94 87 78 73 71 61 62 54 45 43 48 52 56 58 51 40 28 31 42 50 47 46 44 42 37 32 38 32 29 27 28 27 23 31 40 44 47 50 49
126 120 124 120 102 93 84 77 72 67 66 56 50 48 48 51 57 60 55 39 26 37 44 55 48 48 40 35 30 22 31 31 29 30 33 32 27 23 27 37 42 44 43
137 135 131 112 110 106 93 81 74 69 63 54 52 54 47 49 57 66 60 43 37 44 41 51 52 55 50 34 35 30 24 28 26 35 35 32 31 29 23 27 32 32 33
128 123 126 113 105 104 92 75 63 56 48 46 48 51 51 49 54 64 64 49 47 53 44 43 56 45 48 31 44 37 20 17 28 34 30 29 28 28 24 23 20 16 23
117 118 128 126 122 118 112 107 92 70 40 35 37 44 50 52 52 63 64 55 51 57 55 51 59 53 33 22 46 23 9 20 31 30 29 28 25 18 22 23 18 11 5
151 150 149 154 149 146 141 132 127 124 90 66 27 34 39 51 51 63 68 65 59 64 54 53 61 66 37 29 53 56 8 356 7 21 23 33 23 15 20 18 11 8 6
171 173 172 172 162 151 126 103 86 65 50 37 23 15 6 32 47 55 65 70 67 77 74 55 73 87 70 10 42 91 99 291 321 342 10 23 17 20 7 3 8 4 3
188 176 167 159 152 149 138 135 132 129 134 211 239 329 357 17 28 45 63 72 79 78 79 59 76 65 100 43 5 31 113 157 134 325 335 2 7 10 356 357 357 355 359
177 169 165 157 152 149 147 151 142 130 141 113 62 45 15 2 6 21 57 76 72 79 94 80 78 71 85 101 75 15 40 39 76 155 302 326 344 343 338 336 347 350 355
166 164 160 160 163 158 153 151 150 150 146 128 91 39 343 344 351 8 40 64 52 38 360 159 132 110 96 92 86 96 120 141 228 168 221 297 311 314 328 337 352 347 349